OPS 4682 DEB, 38392

Orbit data source: Space-Track

OPS 4682 DEB, 38392 is space debris in LEO originally from a launch on Sat, 03 Apr 1965 UTC launched from the Air Force Western Test Range (AFWTR). Debris objects in space refer to the collection of defunct objects orbiting the Earth. Examples of debris include non-operational satellites, rocket bodies, and fragments generated from explosions, collisions, or faulty payload assembly.

Loading next visibility...
Identifier
38392, 1965-027CV
Orbit
LEO
Country
Flag of USUS
Related business
Manufacturer
Unknown
Mission
Spacecraft
Bus & Motor
Unknown
Mass
Unknown
Launch date (UTC)
1965-04-03 (61 years ago)
Launch vehicle
Unknown
Launch site
Air Force Western Test Range (AFWTR)
Object type
Payload
Rocket body
Debris
Shape & HBR
Unknown shape, 0.1 m
Radar Cross Section
Medium (>0.1 m² and <1 m²)

Expand to show TLE details & history
Last TLE update: 2 days ago

TLE from 2 days ago
0 OPS 4682 DEB
1 38392U 65027CV  26149.37950979  .00000530  00000-0  18557-2 0  9992
2 38392  90.2503  12.9779 0028323 217.1727 142.7432 12.95315607608709
Epoch: 2026-05-29T09:06Z
TLE epoch observation values (Epoch: 2026-05-29T09:06:29.645Z)
Latitude
-0.00003°
Longitude
-10.55635°
Altitude
1,300.663 km
Speed
7.198 km/s
True Right ascension
00h 51m 54s
True Declination
0° 00' 00"
Sunlit
Object was in daylight at epoch
Visualization orbit readout
Latitude
Unknown
Longitude
Unknown
Altitude
Unknown
Speed
Unknown
Apparent Right ascension
Unknown
Apparent Declination
Unknown
Sunlit
N/A
Visualization observer readout
Local Sidereal Time
16:15:37
Azimuth
Unknown
Elevation
Unknown
Doppler factor
Unknown
Orbital elements
Apogee altitude
1,299.313 km
Perigee altitude
1,255.946 km
Semi-major axis
7,655.767 km
Eccentricity
0.00283
Inclination
90.2503°
RAAN
12.9779°
Arg. of periapsis
217.1727°
True anomaly
142.93913°
Mean anomaly
142.7432°
Eccentric anomaly
142.84122°
Mean motion
3.24011 °/min
Orbital period
111.11 mins
BSTAR
0.0018557
Loading maneuver chart data...
Computing Atmospheric mass density...
Loading historical data...
Loading historical data...
Loading historical data...
Loading historical data...
Loading historical data...
Loading historical data...
Loading historical data...

Documentation

Showing up to 5 results
|